[[{"header":{"parameterUnit":"m.s-1","parameterCategory":1,"la1":30.2991,"la2":30.254,"lo1":-89.0895,"lo2":-89.0444,"dy":0.0017,"dx":0.0017,"nx":28,"ny":28,"refTime":"2023-08-01T03:00:00:Z","depth":0,"parameterNumber":2,"parameterNumberName":"U-component_of_WINDS"},"data":[0,0,0,0,0,0,0,0,0,0,0,0,0,0,0,0,0,0,0,0,0,0,0,0,0,0,0,0,0,0,0,0,0,0,0,0,0,0,0,0,0,0,0,0,0,0,0,0,0,0,0,0,0,0,0,0,0,0,0.2397,0.2398,0,0.2479,0.248,0.2481,0.2548,0.2549,0.2549,0.255,0.2632,0.2633,0.2635,0,0,0,0,0,0,0,0,0,0,0,0,0,0.2295,0.2296,0.2397,0.2398,0.2399,0.2479,0.248,0.2481,0.2548,0.2549,0.255,0.255,0.2631,0.2633,0.2635,0,0,0,0,0,0,0,0,0,0,0,0,0,0.2354,0.2297,0.2397,0.2442,0.2447,0.2479,0.248,0.2482,0.2548,0.2549,0.255,0.2551,0.2631,0.2633,0.2635,0.2628,0,0,0.2642,0.2643,0,0,0,0,0,0,0,0,0.2351,0.2358,0.2434,0.2439,0.2445,0.2504,0.2474,0.2531,0.2547,0.2509,0.255,0.2551,0.2588,0.2594,0.2607,0.2632,0.2636,0.2642,0.2644,0.2645,0.2645,0,0,0,0,0,0,0,0.2346,0.2355,0.243,0.2435,0.2442,0.2457,0.2467,0.2485,0.2542,0.2513,0.2518,0.2527,0.2591,0.2605,0.261,0.2637,0.2642,0.2644,0.2646,0.2647,0.2658,0.2657,0,0,0,0,0,0,0.2336,0.2351,0.2427,0.2432,0.2399,0.2458,0.2469,0.2484,0.2542,0.2552,0.2526,0.2529,0.26,0.2607,0.2613,0.2607,0.2645,0.2647,0.2648,0.2659,0.2657,0.2656,0,0,0,0,0,0,0.2333,0.2342,0.2424,0.2393,0.2404,0.2459,0.2475,0.2485,0.2499,0.2552,0.2562,0.2529,0.2602,0.261,0.2624,0.2611,0.2648,0.265,0.266,0.2658,0.2657,0.2596,0,0,0,0,0,0,0.233,0.2341,0.2339,0.2392,0.2406,0.2434,0.2475,0.2486,0.2503,0.2509,0.2558,0.2567,0.2603,0.262,0.2626,0.2615,0.2652,0.2661,0.2659,0.2657,0.2599,0.2593,0.2587,0,0,0,0,0,0.2326,0.2319,0.2339,0.2348,0.2406,0.2433,0.2441,0.2483,0.2502,0.25,0.2534,0.2565,0.2611,0.2621,0.2628,0.2617,0.2662,0.266,0.2657,0.2602,0.2594,0.2587,0,0,0,0,0,0,0.2263,0.2327,0.235,0.236,0.239,0.2444,0.2444,0.2473,0.2498,0.2503,0.2553,0.2564,0.2572,0.2596,0.2605,0.2612,0.2641,0.264,0.2596,0.2589,0.2583,0.2576,0.2654,0,0,0,0,0,0.225,0.2268,0.2323,0.2326,0.234,0.2389,0.2403,0.2433,0.2466,0.2479,0.2514,0.2545,0.2566,0.2579,0.2602,0.2603,0.2614,0.2599,0.2593,0.2588,0.2586,0.2587,0.258,0.2648,0.2648,0.2648,0,0,0.2224,0.2261,0.2269,0.2314,0.2342,0.2358,0.24,0.2415,0.2427,0.2482,0.2497,0.2523,0.256,0.2567,0.2573,0.2588,0.2569,0.2584,0.258,0.2581,0.2584,0.2577,0.2571,0.2647,0.2647,0.2647,0,0,0.2184,0.2215,0.222,0.2247,0.2288,0.232,0.2321,0.237,0.239,0.2406,0.2446,0.246,0.2497,0.2521,0.2538,0.2505,0.2535,0.2511,0.2478,0.2478,0.2473,0.2468,0.2455,0.245,0.2509,0.2509,0.2509,0,0.2146,0.2174,0.2219,0.2232,0.225,0.23,0.2305,0.2328,0.2373,0.2384,0.2401,0.2446,0.2475,0.2487,0.2479,0.2492,0.2493,0.2506,0.247,0.2466,0.2462,0.245,0.2445,0.2506,0.2506,0.2507,0.2507,0,0.2124,0.2142,0.2141,0.2184,0.2202,0.2211,0.2256,0.2268,0.2296,0.2326,0.234,0.2377,0.2406,0.2412,0.2439,0.2428,0.2436,0.2461,0.249,0.2452,0.2441,0.2437,0.2501,0.2503,0.2504,0.2504,0,0,0.2047,0.2115,0.2114,0.2133,0.2181,0.2195,0.2205,0.2235,0.2243,0.2273,0.2281,0.231,0.2332,0.2352,0.2382,0.2382,0.2352,0.2407,0.2408,0.2394,0.234,0.232,0.2314,0.2372,0.2371,0.2371,0.2336,0,0.2015,0.2037,0.2078,0.2086,0.2102,0.2149,0.2157,0.2186,0.2214,0.2231,0.2261,0.228,0.2309,0.2321,0.2323,0.2355,0.2341,0.2358,0.2379,0.2379,0.2367,0.2309,0.2289,0.2255,0.2332,0.2332,0.2331,0,0.198,0.2006,0.2016,0.2061,0.207,0.2077,0.2106,0.2122,0.2155,0.2175,0.2196,0.2229,0.224,0.2267,0.2283,0.2293,0.2304,0.2321,0.232,0.2323,0.2352,0.2309,0.2245,0.2239,0.2326,0.2326,0.2327,0,0.1921,0.1959,0.197,0.1985,0.2039,0.2042,0.2064,0.2099,0.2114,0.2139,0.2148,0.2174,0.2188,0.2207,0.2246,0.2262,0.2256,0.2287,0.2272,0.2271,0.2268,0.2268,0.2204,0.2276,0.2276,0.2277,0.2277,0,0.188,0.1884,0.1944,0.1951,0.1956,0.2002,0.2005,0.2031,0.2061,0.2072,0.2114,0.2124,0.2174,0.2189,0.2219,0.2226,0.2233,0.2248,0.2256,0.2244,0.2241,0.2251,0.2254,0.2275,0.2275,0.2276,0.2276,0,0.1815,0.1856,0.1871,0.192,0.1932,0.1933,0.1975,0.1982,0.2012,0.2025,0.2031,0.2077,0.2096,0.2136,0.2167,0.2187,0.2186,0.2201,0.2175,0.218,0.2162,0.2163,0.2101,0.2095,0.2172,0.2171,0.2171,0,0.1786,0.179,0.1839,0.185,0.1871,0.1888,0.1903,0.1947,0.1961,0.1998,0.2,0.2023,0.2043,0.2071,0.2107,0.213,0.2145,0.2121,0.2148,0.2135,0.2143,0.2142,0.2141,0.2115,0.2114,0.2113,0.2112,0,0.1729,0.1749,0.1769,0.1796,0.1813,0.1836,0.1861,0.1867,0.1917,0.193,0.1951,0.1966,0.1997,0.2018,0.2046,0.2067,0.2097,0.2104,0.2101,0.2089,0.2073,0.208,0.2158,0.2105,0.2106,0.2106,0.2107,0.2107,0.1681,0.1686,0.1721,0.1742,0.1765,0.1787,0.1796,0.1826,0.1844,0.1873,0.1898,0.1915,0.1947,0.1988,0.2007,0.202,0.2035,0.2032,0.2031,0.2029,0.2024,0.2071,0.2026,0.2026,0.2026,0.2026,0.2027,0,0.1625,0.1649,0.1668,0.1702,0.1717,0.1745,0.1774,0.1785,0.18,0.1827,0.1846,0.1868,0.1889,0.1925,0.1949,0.1952,0.1966,0.1956,0.1956,0.196,0.201,0.2009,0.1944,0.1944,0.1944,0.1944,0.1944,0.1944,0.1597,0.1607,0.163,0.1651,0.1676,0.1694,0.1707,0.1727,0.1749,0.1772,0.179,0.1813,0.1844,0.1869,0.1888,0.1899,0.1904,0.189,0.1904,0.1949,0.1957,0.1964,0.1964,0.1891,0.1891,0.1854,0.1853,0.1853]},{"header":{"parameterUnit":"m.s-1","parameterCategory":1,"la1":30.2991,"la2":30.254,"lo1":-89.0895,"lo2":-89.0444,"dy":0.0017,"dx":0.0017,"nx":28,"ny":28,"refTime":"2023-08-01T03:00:00:Z","depth":0,"parameterNumber":3,"parameterNumberName":"V-component_of_WINDS"},"data":[0,0,0,0,0,0,0,0,0,0,0,0,0,0,0,0,0,0,0,0,0,0,0,0,0,0,0,0,0,0,0,0,0,0,0,0,0,0,0,0,0,0,0,0,0,0,0,0,0,0,0,0,0,0,0,0,0,0,2.7644,2.7643,0,2.7585,2.7585,2.7584,2.7514,2.7513,2.7512,2.7511,2.7449,2.7448,2.7448,0,0,0,0,0,0,0,0,0,0,0,0,0,2.7692,2.7692,2.7644,2.7643,2.7642,2.7586,2.7585,2.7584,2.7514,2.7513,2.7512,2.751,2.7449,2.7448,2.7448,0,0,0,0,0,0,0,0,0,0,0,0,0,2.7656,2.7692,2.7644,2.7601,2.7596,2.7586,2.7585,2.7584,2.7515,2.7513,2.7511,2.751,2.7449,2.7448,2.7448,2.7474,0,0,2.7445,2.7444,0,0,0,0,0,0,0,0,2.7659,2.7655,2.7608,2.7604,2.7599,2.7555,2.7579,2.7547,2.7515,2.7546,2.7511,2.7509,2.7486,2.7481,2.7474,2.7471,2.7468,2.7444,2.7444,2.7443,2.7443,0,0,0,0,0,0,0,2.7661,2.7657,2.7621,2.7607,2.7602,2.7584,2.7577,2.7573,2.7525,2.7543,2.7538,2.7532,2.7483,2.7475,2.7472,2.7467,2.7444,2.7444,2.7443,2.7443,2.7482,2.7483,0,0,0,0,0,0,2.767,2.7659,2.7622,2.7619,2.7625,2.7584,2.7576,2.7571,2.7525,2.7517,2.7533,2.7529,2.7478,2.7473,2.747,2.7496,2.7443,2.7443,2.7442,2.748,2.7482,2.7484,0,0,0,0,0,0,2.7672,2.7668,2.7625,2.7638,2.7631,2.7585,2.7579,2.7571,2.7563,2.7518,2.7509,2.7534,2.7476,2.7471,2.7473,2.7493,2.7442,2.7441,2.7478,2.7481,2.7483,2.7551,0,0,0,0,0,0,2.7674,2.7669,2.7679,2.7638,2.763,2.763,2.7581,2.7571,2.7562,2.7555,2.7517,2.7509,2.7474,2.7475,2.7472,2.7491,2.744,2.7476,2.7479,2.7482,2.7547,2.7556,2.7563,0,0,0,0,0,2.7675,2.77,2.768,2.7676,2.7642,2.7632,2.7627,2.7588,2.7564,2.7573,2.7544,2.751,2.7492,2.7476,2.7472,2.7491,2.7475,2.7478,2.7482,2.7543,2.7554,2.7563,0,0,0,0,0,0,2.7743,2.7694,2.7671,2.7683,2.7662,2.762,2.763,2.7601,2.7585,2.758,2.7531,2.7523,2.7531,2.7511,2.7494,2.7513,2.7478,2.7481,2.7526,2.7536,2.7544,2.7548,2.744,0,0,0,0,0,2.776,2.7756,2.7713,2.7728,2.7719,2.7677,2.7671,2.7642,2.7618,2.7609,2.758,2.7557,2.7546,2.754,2.7528,2.7544,2.7534,2.7555,2.7563,2.757,2.7573,2.7579,2.7588,2.7496,2.7496,2.7496,0,0,2.7793,2.7766,2.7767,2.7741,2.7721,2.7718,2.767,2.7668,2.7664,2.7608,2.7609,2.7587,2.7558,2.7567,2.757,2.7551,2.7596,2.7575,2.7581,2.758,2.7584,2.7593,2.76,2.7498,2.7498,2.7497,0,0,2.7853,2.7832,2.7842,2.7824,2.7795,2.7767,2.777,2.7732,2.7715,2.7715,2.7673,2.7668,2.765,2.7631,2.7619,2.7672,2.764,2.7669,2.7711,2.7718,2.7725,2.7731,2.7749,2.7756,2.7673,2.7673,2.7673,0,2.7898,2.7892,2.7851,2.7852,2.7841,2.7792,2.7801,2.7784,2.7753,2.7746,2.7726,2.7703,2.768,2.7684,2.7697,2.7689,2.769,2.7673,2.7728,2.7733,2.7738,2.7755,2.7762,2.7676,2.7676,2.7676,2.7675,0,2.7948,2.7945,2.7956,2.7928,2.7918,2.7924,2.7883,2.7878,2.7851,2.7825,2.7825,2.7796,2.7777,2.7776,2.7749,2.7775,2.7764,2.7737,2.77,2.7752,2.7766,2.7772,2.7682,2.768,2.7679,2.7678,0,0,2.8048,2.7997,2.8002,2.7988,2.7953,2.7949,2.7952,2.7933,2.793,2.791,2.791,2.7897,2.7871,2.7857,2.7828,2.7834,2.7876,2.7805,2.7803,2.7818,2.7902,2.7923,2.7931,2.7855,2.7856,2.7857,2.7905,0,2.81,2.8103,2.8066,2.8078,2.8073,2.8026,2.8028,2.8006,2.7982,2.7974,2.7946,2.7937,2.7904,2.7896,2.79,2.7871,2.7892,2.7867,2.7853,2.7854,2.7861,2.7939,2.7961,2.8007,2.791,2.7911,2.7912,0,2.8161,2.8146,2.8157,2.8121,2.8118,2.8121,2.8101,2.8094,2.8068,2.805,2.8035,2.8002,2.8001,2.7967,2.7964,2.7948,2.794,2.7925,2.7926,2.7922,2.7885,2.7936,2.8021,2.8028,2.792,2.792,2.7919,0,2.8232,2.8214,2.8218,2.8208,2.8166,2.8169,2.8151,2.8124,2.8115,2.8098,2.8091,2.8074,2.8064,2.805,2.8013,2.7992,2.8014,2.7977,2.7998,2.7999,2.8004,2.8004,2.8087,2.8001,2.8001,2.8001,2.8,0,2.8293,2.8302,2.8249,2.8252,2.826,2.8217,2.8226,2.8204,2.818,2.8177,2.8135,2.8132,2.8084,2.8075,2.8046,2.8047,2.8044,2.8028,2.802,2.8031,2.8033,2.8025,2.802,2.8002,2.8002,2.8002,2.8001,0,2.8373,2.8338,2.834,2.83,2.829,2.8298,2.8264,2.8264,2.8238,2.8234,2.8231,2.8188,2.8177,2.8138,2.8117,2.8097,2.8107,2.8092,2.8116,2.8111,2.8133,2.8131,2.8213,2.8221,2.8131,2.8132,2.8133,0,2.8414,2.842,2.8382,2.8377,2.8361,2.8354,2.8345,2.8304,2.8296,2.8267,2.827,2.8255,2.8241,2.8224,2.8191,2.8174,2.8158,2.8188,2.8155,2.8166,2.8157,2.8157,2.8157,2.8195,2.8196,2.8197,2.8198,0,2.8491,2.8473,2.8462,2.8446,2.8436,2.8421,2.8403,2.8401,2.8354,2.8347,2.8335,2.8325,2.8303,2.8288,2.8266,2.8246,2.8214,2.8209,2.8212,2.8223,2.8237,2.8229,2.8134,2.8207,2.8206,2.8205,2.8205,2.8204,2.8552,2.8554,2.8528,2.8517,2.8499,2.8483,2.8481,2.8455,2.8444,2.8424,2.84,2.8391,2.8363,2.833,2.8314,2.8305,2.8287,2.8293,2.8294,2.8296,2.8301,2.8239,2.8301,2.83,2.83,2.83,2.83,0,2.8625,2.8606,2.8597,2.8573,2.8564,2.8536,2.8514,2.8508,2.8501,2.8479,2.8466,2.8452,2.8437,2.8403,2.8385,2.8385,2.8369,2.8381,2.838,2.8376,2.8318,2.8316,2.8394,2.8394,2.8394,2.8394,2.8394,2.8394,2.8663,2.8665,2.8645,2.8638,2.8618,2.8609,2.8599,2.8584,2.8566,2.8552,2.8541,2.8519,2.8491,2.8471,2.8456,2.8446,2.8441,2.8458,2.8443,2.8389,2.838,2.8372,2.837,2.8457,2.8457,2.8502,2.8502,2.8502]}]]